Date,TemperatureHighF,TemperatureAvgF,TemperatureLowF,DewpointHighF,DewpointAvgF,DewpointLowF,HumidityHigh,HumidityAvg,HumidityLow,PressureMaxIn,PressureMinIn,WindSpeedMaxMPH,WindSpeedAvgMPH,GustSpeedMaxMPH,PrecipitationSumIn
2013-7-1,82.7,71.1,64.5,70.8,66.0,61.8,100,85,60,29.92,29.76,7,1,10,0.13
2013-7-2,79.0,70.2,64.9,70.4,66.3,64.3,100,88,68,30.06,29.89,14,2,15,0.75
2013-7-3,79.1,70.5,67.6,70.3,66.1,64.0,92,86,71,30.16,30.06,17,3,17,0.03
2013-7-4,83.9,74.3,67.6,71.6,67.4,64.0,95,80,61,30.20,30.08,17,3,17,0.05
2013-7-5,81.5,72.2,67.6,74.9,68.3,63.7,100,88,68,30.16,30.08,16,2,16,0.33
2013-7-6,84.8,74.5,63.6,72.1,66.6,63.3,100,78,52,30.16,30.04,12,2,15,0.00
2013-7-7,75.7,69.5,62.9,70.9,67.2,62.9,100,92,80,30.13,30.02,15,1,16,0.47
2013-7-8,80.7,69.6,60.9,70.5,65.6,60.6,100,88,61,30.17,30.09,9,0,9,0.01
2013-7-9,85.2,73.7,64.6,72.9,68.0,64.0,100,84,56,30.13,30.01,8,1,8,0.00
2013-7-10,82.5,71.7,65.3,77.0,69.1,64.7,100,92,77,30.03,29.89,15,1,15,1.31
2013-7-11,76.2,67.7,62.6,70.4,66.2,62.3,100,95,80,29.95,29.88,7,0,7,0.01
2013-7-12,73.5,66.5,58.8,67.3,64.3,56.6,100,93,76,30.06,29.91,10,1,10,2.37
2013-7-13,79.8,67.1,53.0,69.0,62.4,52.7,100,86,69,30.17,30.01,10,1,12,0.00
2013-7-14,83.5,74.7,67.5,70.7,66.9,64.2,93,77,59,30.26,30.14,17,2,17,0.00
2013-7-15,86.7,75.6,63.9,72.9,68.6,63.1,100,80,54,30.32,30.22,9,1,9,0.00
2013-7-16,87.5,76.4,64.1,73.7,69.6,64.0,100,81,56,30.30,30.21,9,1,10,0.00
2013-7-17,87.5,76.4,66.7,76.1,71.8,66.4,100,87,64,30.26,30.12,11,1,11,0.01
2013-7-18,87.3,77.3,69.3,76.7,72.3,69.0,100,86,64,30.18,30.03,13,0,14,0.01
2013-7-19,86.3,73.9,66.2,77.6,70.5,65.8,100,90,67,30.06,29.91,17,1,17,0.87
2013-7-20,85.7,73.8,65.7,75.2,69.6,64.9,100,88,60,29.96,29.84,12,1,12,0.01
2013-7-21,82.0,70.8,64.4,73.8,68.8,64.3,100,94,70,30.00,29.88,24,0,24,1.83
2013-7-22,81.5,71.8,67.0,72.7,69.0,66.7,100,92,70,29.93,29.76,11,1,12,0.34
2013-7-23,80.5,71.5,66.9,71.5,68.0,66.0,100,89,68,29.81,29.73,11,1,11,0.33
2013-7-24,76.2,67.3,59.2,70.4,64.4,58.3,100,91,69,29.92,29.72,11,1,11,0.40
2013-7-25,74.2,62.2,53.6,61.3,57.2,53.3,100,86,58,30.09,29.91,8,1,8,0.01
2013-7-26,81.8,66.0,50.0,64.5,57.9,49.7,100,79,45,30.10,29.99,8,1,9,0.00
2013-7-27,74.7,65.9,60.7,68.3,63.5,59.6,100,92,78,30.00,29.86,17,2,17,0.93
2013-7-28,75.7,66.8,57.1,66.3,61.8,55.7,100,85,64,30.04,29.85,15,1,15,0.16
2013-7-29,72.8,61.3,48.4,59.2,54.4,48.1,100,80,53,30.23,30.04,7,1,11,0.01
2013-7-30,77.5,65.1,51.3,62.8,57.7,50.5,100,79,52,30.25,30.15,7,0,7,0.00
2013-7-31,66.9,62.5,59.0,63.8,60.9,57.7,100,95,86,30.15,29.98,6,1,10,0.21